| time (UTC) | temp C | wind direction | speed KPH | gust KPH | rain 1hr cm | rain 24hr cm | rain mn cm | humidity % | barometer mb |
| 20260906121601 | 21 | 56 | 4.8 | 12.9 | 0.00 | 0.00 | 0.00 | 88 | 1019.9 |
| 20260906120104 | 20 | 57 | 4.8 | 11.3 | 0.00 | 0.00 | 0.00 | 89 | 1019.8 |
| 20260906114556 | 20 | 81 | 4.8 | 11.3 | 0.00 | 0.00 | 0.00 | 89 | 1019.6 |
| 20260906113055 | 20 | 53 | 3.2 | 14.5 | 0.00 | 0.00 | 0.00 | 89 | 1019.3 |
| 20260906111600 | 20 | 43 | 6.4 | 9.7 | 0.00 | 0.00 | 0.00 | 89 | 1019.1 |
| 20260906110056 | 21 | 56 | 3.2 | 9.7 | 0.00 | 0.00 | 0.00 | 88 | 1019.0 |
| 20260906104557 | 21 | 67 | 3.2 | 8.0 | 0.00 | 0.00 | 0.00 | 88 | 1018.8 |
| 20260906103054 | 21 | 42 | 3.2 | 8.0 | 0.00 | 0.00 | 0.00 | 88 | 1018.4 |
| 20260906101558 | 21 | 40 | 3.2 | 8.0 | 0.00 | 0.00 | 0.00 | 88 | 1018.4 |
| 20260906100100 | 21 | 42 | 4.8 | 9.7 | 0.00 | 0.00 | 0.00 | 88 | 1018.4 |
| 20260906094621 | 21 | 69 | 4.8 | 9.7 | 0.00 | 0.00 | 0.00 | 88 | 1018.4 |
| 20260906093104 | 21 | 49 | 3.2 | 9.7 | 0.00 | 0.00 | 0.00 | 88 | 1018.3 |
| 20260906091601 | 21 | 11 | 4.8 | 9.7 | 0.00 | 0.00 | 0.00 | 88 | 1018.3 |
| 20260906090110 | 21 | 352 | 4.8 | 12.9 | 0.00 | 0.00 | 0.00 | 88 | 1018.2 |
| 20260906084605 | 21 | 12 | 3.2 | 8.0 | 0.00 | 0.00 | 0.00 | 88 | 1018.2 |
| 20260906083101 | 21 | 26 | 3.2 | 6.4 | 0.00 | 0.00 | 0.00 | 87 | 1018.2 |
| 20260906081604 | 21 | 35 | 3.2 | 6.4 | 0.00 | 0.00 | 0.00 | 87 | 1018.1 |
| 20260906080106 | 21 | 352 | 1.6 | 6.4 | 0.00 | 0.00 | 0.00 | 87 | 1018.1 |
| 20260906074605 | 21 | 51 | 1.6 | 6.4 | 0.00 | 0.00 | 0.00 | 87 | 1018.2 |
| 20260906073100 | 21 | 50 | 3.2 | 6.4 | 0.00 | 0.00 | 0.00 | 87 | 1018.1 |
| 20260906071602 | 21 | 19 | 1.6 | 9.7 | 0.00 | 0.00 | 0.00 | 87 | 1018.3 |
| 20260906070101 | 21 | 335 | 4.8 | 6.4 | 0.00 | 0.00 | 0.00 | 88 | 1018.3 |
| 20260906064554 | 21 | 31 | 3.2 | 4.8 | 0.00 | 0.00 | 0.00 | 88 | 1018.3 |
| 20260906063057 | 21 | 65 | 1.6 | 8.0 | 0.00 | 0.00 | 0.00 | 88 | 1018.2 |
| 20260906061556 | 21 | 51 | 0.0 | 8.0 | 0.00 | 0.00 | 0.00 | 88 | 1018.3 |
| 20260906054602 | 21 | 38 | 3.2 | 6.4 | 0.00 | 0.00 | 0.00 | 89 | 1018.3 |
| 20260906053056 | 21 | 56 | 3.2 | 12.9 | 0.00 | 0.00 | 0.00 | 89 | 1018.2 |
| 20260906051558 | 21 | 66 | 4.8 | 12.9 | 0.00 | 0.00 | 0.00 | 89 | 1018.0 |
| 20260906050055 | 21 | 53 | 4.8 | 12.9 | 0.00 | 0.00 | 0.00 | 88 | 1018.0 |
| 20260906044600 | 21 | 47 | 3.2 | 17.7 | 0.00 | 0.00 | 0.00 | 88 | 1017.9 |
| 20260906043055 | 21 | 105 | 4.8 | 17.7 | 0.00 | 0.00 | 0.00 | 88 | 1017.7 |
| 20260906041553 | 21 | 86 | 3.2 | 16.1 | 0.00 | 0.00 | 0.00 | 88 | 1017.5 |
| 20260906034558 | 21 | 348 | 14.5 | 27.4 | 0.00 | 0.00 | 0.00 | 87 | 1017.4 |
| 20260906033100 | 21 | 62 | 11.3 | 22.5 | 0.00 | 0.00 | 0.00 | 87 | 1017.3 |
| 20260906031558 | 22 | 57 | 3.2 | 20.9 | 0.00 | 0.00 | 0.00 | 87 | 1017.4 |
| 20260906030056 | 21 | 80 | 4.8 | 16.1 | 0.00 | 0.00 | 0.00 | 87 | 1017.4 |
| 20260906024555 | 22 | 69 | 6.4 | 20.9 | 0.00 | 0.00 | 0.00 | 87 | 1017.3 |
| 20260906023058 | 22 | 51 | 12.9 | 24.1 | 0.00 | 0.00 | 0.00 | 86 | 1017.1 |
| 20260906021600 | 22 | 84 | 4.8 | 27.4 | 0.00 | 0.00 | 0.00 | 86 | 1017.2 |
| 20260906020104 | 22 | 337 | 4.8 | 16.1 | 0.00 | 0.00 | 0.00 | 85 | 1017.3 |
| 20260906014603 | 22 | 90 | 4.8 | 19.3 | 0.00 | 0.00 | 0.00 | 85 | 1017.5 |
| 20260906013058 | 22 | 360 | 4.8 | 24.1 | 0.00 | 0.00 | 0.00 | 85 | 1017.4 |
| 20260906011607 | 22 | 352 | 11.3 | 25.7 | 0.00 | 0.00 | 0.00 | 85 | 1017.3 |
| 20260906010057 | 22 | 300 | 6.4 | 20.9 | 0.00 | 0.00 | 0.00 | 85 | 1017.2 |
| 20260906004619 | 21 | 16 | 11.3 | 32.2 | 0.00 | 0.00 | 0.00 | 86 | 1016.9 |
| 20260906003058 | 22 | 327 | 9.7 | 24.1 | 0.00 | 0.00 | 0.00 | 86 | 1016.8 |
| 20260906001605 | 22 | 352 | 9.7 | 27.4 | 0.00 | 0.00 | 0.00 | 86 | 1016.6 |
| 20260906000100 | 22 | 65 | 12.9 | 24.1 | 0.00 | 0.00 | 0.00 | 86 | 1016.8 |
| 20260905234606 | 21 | 326 | 9.7 | 24.1 | 0.00 | 0.00 | 0.00 | 86 | 1016.8 |
| 20260905233114 | 22 | 55 | 12.9 | 33.8 | 0.00 | 0.00 | 0.00 | 86 | 1016.6 |
| 20260905231557 | 22 | 286 | 12.9 | 29.0 | 0.00 | 0.00 | 0.00 | 86 | 1016.6 |
| 20260905230059 | 22 | 360 | 11.3 | 25.7 | 0.00 | 0.00 | 0.00 | 86 | 1016.4 |
| 20260905224611 | 22 | 17 | 12.9 | 27.4 | 0.00 | 0.00 | 0.00 | 85 | 1016.4 |
| 20260905223106 | 23 | 59 | 6.4 | 22.5 | 0.00 | 0.00 | 0.00 | 84 | 1016.5 |
| 20260905221601 | 23 | 202 | 8.0 | 24.1 | 0.00 | 0.00 | 0.00 | 82 | 1016.5 |
| 20260905220056 | 24 | 45 | 8.0 | 27.4 | 0.00 | 0.00 | 0.00 | 81 | 1016.1 |
| 20260905214555 | 25 | 345 | 9.7 | 30.6 | 0.00 | 0.00 | 0.00 | 79 | 1016.0 |
| 20260905213101 | 25 | 15 | 6.4 | 29.0 | 0.00 | 0.00 | 0.00 | 78 | 1015.8 |
| 20260905211557 | 25 | 50 | 6.4 | 25.7 | 0.00 | 0.00 | 0.00 | 77 | 1015.8 |
| 20260905204602 | 26 | 46 | 8.0 | 17.7 | 0.00 | 0.00 | 0.00 | 74 | 1015.8 |
| 20260905203059 | 26 | 338 | 9.7 | 20.9 | 0.00 | 0.00 | 0.00 | 75 | 1015.8 |
| 20260905201607 | 25 | 12 | 6.4 | 22.5 | 0.00 | 0.00 | 0.00 | 78 | 1015.9 |
| 20260905200100 | 25 | 244 | 11.3 | 24.1 | 0.00 | 0.00 | 0.00 | 78 | 1016.1 |
| 20260905194604 | 25 | 10 | 8.0 | 19.3 | 0.00 | 0.00 | 0.00 | 78 | 1016.1 |
| 20260905193100 | 25 | 17 | 12.9 | 24.1 | 0.00 | 0.00 | 0.00 | 78 | 1016.2 |
| 20260905191557 | 25 | 321 | 4.8 | 16.1 | 0.00 | 0.00 | 0.00 | 78 | 1016.3 |
| 20260905190112 | 25 | 51 | 9.7 | 25.7 | 0.00 | 0.00 | 0.00 | 79 | 1016.4 |
| 20260905184621 | 25 | 331 | 8.0 | 20.9 | 0.00 | 0.00 | 0.00 | 79 | 1016.5 |
| 20260905183057 | 25 | 360 | 8.0 | 20.9 | 0.00 | 0.00 | 0.00 | 80 | 1016.5 |
| 20260905181555 | 25 | 360 | 9.7 | 22.5 | 0.00 | 0.00 | 0.00 | 79 | 1016.5 |
| 20260905180059 | 25 | 280 | 14.5 | 20.9 | 0.00 | 0.00 | 0.00 | 79 | 1016.4 |
| 20260905174600 | 25 | 22 | 9.7 | 22.5 | 0.00 | 0.00 | 0.00 | 80 | 1016.4 |
| 20260905173054 | 24 | 86 | 11.3 | 22.5 | 0.00 | 0.00 | 0.00 | 81 | 1016.3 |
| 20260905171553 | 25 | 29 | 11.3 | 25.7 | 0.00 | 0.00 | 0.00 | 80 | 1016.4 |
| 20260905164604 | 25 | 336 | 9.7 | 24.1 | 0.00 | 0.00 | 0.00 | 81 | 1016.5 |
| 20260905163106 | 25 | 54 | 6.4 | 17.7 | 0.00 | 0.00 | 0.00 | 80 | 1016.5 |
| 20260905161558 | 25 | 352 | 9.7 | 19.3 | 0.00 | 0.00 | 0.00 | 81 | 1016.5 |
| 20260905160110 | 25 | 55 | 6.4 | 19.3 | 0.00 | 0.00 | 0.00 | 84 | 1016.3 |
| 20260905154606 | 24 | 13 | 11.3 | 24.1 | 0.00 | 0.00 | 0.00 | 84 | 1016.3 |
| 20260905153102 | 24 | 55 | 8.0 | 25.7 | 0.00 | 0.00 | 0.00 | 83 | 1015.9 |
| 20260905151601 | 25 | 33 | 11.3 | 25.7 | 0.00 | 0.00 | 0.00 | 82 | 1015.8 |
| 20260905144555 | 25 | 22 | 3.2 | 14.5 | 0.00 | 0.00 | 0.00 | 84 | 1015.6 |
| 20260905143103 | 24 | 26 | 8.0 | 19.3 | 0.00 | 0.00 | 0.00 | 86 | 1015.6 |
| 20260905141619 | 23 | 49 | 9.7 | 25.7 | 0.00 | 0.00 | 0.00 | 87 | 1015.5 |
| 20260905140056 | 24 | 22 | 6.4 | 17.7 | 0.00 | 0.00 | 0.00 | 87 | 1015.5 |
| 20260905134555 | 24 | 69 | 9.7 | 19.3 | 0.00 | 0.00 | 0.00 | 87 | 1015.4 |
| 20260905133055 | 23 | 53 | 8.0 | 20.9 | 0.00 | 0.00 | 0.00 | 89 | 1015.7 |
| 20260905131629 | 23 | 24 | 8.0 | 14.5 | 0.00 | 0.00 | 0.00 | 92 | 1015.5 |
| 20260905130114 | 22 | 325 | 6.4 | 14.5 | 0.00 | 0.00 | 0.00 | 93 | 1015.4 |
| 20260905124558 | 22 | 62 | 4.8 | 12.9 | 0.00 | 0.00 | 0.00 | 93 | 1015.1 |
| 20260905123100 | 22 | 21 | 3.2 | 11.3 | 0.00 | 0.00 | 0.00 | 93 | 1015.0 |